Wind_Speed
14 10 17 6 4 3 5 8 4 14 8 5 7 13 15 11 4 2 23 27 19 10 12 11 10 10 9 11 11 11 12 11 11 12 12 13 13 13 13 13 13 11 10 9 7 8 6 6 6
12 12 4 3 2 2 6 5 8 7 12 19 15 13 16 7 7 11 3 29 18 19 16 13 10 8 8 9 10 10 11 10 10 11 11 11 11 11 11 11 11 10 9 8 7 6 6 6 6
10 4 2 3 3 5 3 5 8 4 6 6 7 5 15 14 18 7 12 28 30 22 13 13 11 9 7 7 8 9 10 10 9 9 10 10 10 10 10 9 9 8 7 7 7 7 7 7 7
2 3 4 0 9 12 7 5 7 7 4 12 14 11 14 42 22 24 31 31 22 17 12 12 10 9 8 7 7 8 9 10 9 9 10 10 10 10 10 10 9 8 8 8 8 8 8 8 8
6 2 2 4 10 6 2 4 4 6 2 14 21 13 13 21 18 26 28 28 31 21 17 15 12 10 8 6 6 6 8 8 7 7 10 11 10 10 10 10 10 9 9 9 9 9 9 9 10
3 2 3 5 9 6 4 4 5 8 12 8 16 11 6 21 28 10 29 30 23 20 19 17 15 13 12 10 7 6 6 7 6 6 7 8 9 9 10 11 11 11 11 11 11 11 11 12 12
4 0 6 9 12 5 2 2 6 8 12 9 8 9 4 13 12 23 33 27 20 18 16 16 15 12 8 8 8 8 7 7 6 6 7 9 10 10 11 12 13 14 14 14 14 14 14 14 14
4 2 10 7 7 3 2 4 6 12 6 7 5 4 5 6 20 18 16 26 22 16 10 12 9 7 6 7 9 9 8 9 9 10 10 10 11 13 14 14 16 17 17 18 17 16 16 16 17
1 3 5 8 9 3 3 6 6 5 6 7 7 8 6 14 22 36 33 42 29 32 28 8 9 7 6 8 9 8 7 7 7 8 9 11 12 14 16 19 20 21 21 21 20 19 19 19 20
4 3 6 3 5 7 6 8 7 11 15 12 9 11 19 26 31 28 28 24 25 26 24 24 22 20 17 8 5 9 8 6 8 9 12 12 12 14 18 19 19 20 23 23 21 22 22 21 23
7 7 5 6 7 8 4 6 5 10 9 8 10 12 18 22 25 24 25 26 27 27 27 25 22 22 20 19 14 5 3 8 8 7 7 7 10 11 14 21 23 23 24 25 25 26 26 27 26
1 7 2 5 7 6 7 5 7 14 7 10 10 12 16 17 14 20 23 27 28 27 25 26 24 23 22 21 18 12 8 10 14 10 10 13 16 16 16 19 24 25 28 32 32 29 29 29 29
3 7 1 5 7 3 9 7 8 10 10 11 14 16 13 12 18 26 24 25 26 28 28 27 24 25 26 23 19 15 13 10 10 18 15 21 24 25 20 14 25 26 27 31 33 32 30 28 27
5 6 2 1 5 3 2 6 7 6 9 10 12 11 11 12 17 20 19 18 18 18 20 21 21 22 21 22 22 22 19 13 13 13 17 24 26 22 25 26 25 26 28 27 26 29 35 32 31
2 4 8 4 4 5 4 5 7 9 8 10 10 9 10 10 20 14 13 12 11 12 14 18 18 20 22 25 28 28 24 20 18 16 16 18 23 21 22 26 22 28 29 28 27 19 23 28 35
6 4 4 9 8 4 6 7 9 9 9 8 10 9 11 10 14 12 10 8 6 8 10 15 17 19 23 25 29 27 27 26 24 22 20 21 21 28 30 31 28 28 24 22 20 24 33 23 21
5 5 6 6 8 8 5 5 7 9 8 5 8 9 12 9 10 12 8 3 1 1 5 8 11 16 16 21 25 25 24 24 24 23 21 19 20 18 23 30 35 33 34 31 31 19 28 31 32
5 5 4 8 6 6 1 4 6 9 9 9 7 9 8 8 8 12 7 5 5 2 5 7 9 11 13 18 22 19 26 26 27 29 30 29 29 28 28 25 23 30 32 30 30 30 29 28 29
5 6 7 4 7 6 4 4 5 10 7 7 8 8 8 8 7 7 5 7 6 2 5 6 9 8 12 16 18 23 23 22 25 28 29 30 31 31 28 27 25 21 30 32 30 30 33 30 27
6 6 6 5 5 4 3 8 9 6 8 8 10 9 7 5 4 3 6 2 4 2 5 5 6 8 11 14 15 16 20 27 28 28 24 29 28 31 27 24 24 24 23 26 31 33 32 27 28
5 4 3 3 6 7 6 8 10 6 13 10 8 8 6 4 3 1 2 7 3 2 2 1 2 6 8 11 16 20 26 27 27 27 28 28 32 35 33 31 28 26 23 23 29 30 31 26 28
4 8 10 9 7 3 4 5 6 10 10 9 8 1 5 4 3 1 5 1 2 4 6 4 1 2 7 12 13 16 20 23 25 27 28 29 31 34 37 35 31 28 24 27 26 29 32 29 23
4 7 6 5 5 3 10 2 2 8 5 2 6 6 8 5 2 6 3 6 7 9 10 3 1 5 7 10 11 16 19 22 25 26 26 28 29 29 29 28 30 30 30 31 27 28 30 32 31
5 5 7 6 3 1 11 5 2 3 6 3 2 9 8 3 6 5 9 12 13 16 6 1 2 6 9 12 15 19 22 23 24 27 28 25 25 25 27 29 27 27 27 23 23 24 29 31 33
6 2 3 5 3 6 4 4 3 7 9 7 7 4 5 7 6 5 5 7 11 13 9 8 9 11 14 16 17 17 18 22 23 25 25 26 26 28 28 30 31 33 32 33 30 31 27 27 32
4 6 5 4 1 5 8 4 2 7 7 8 7 6 7 7 3 5 4 8 8 9 9 12 13 14 14 16 17 20 24 26 28 29 29 28 29 30 31 33 34 33 33 29 26 24 26 24 24
4 4 8 4 4 3 2 4 4 9 7 7 5 5 7 7 4 4 5 10 12 14 14 16 14 14 16 18 23 27 29 30 30 30 28 29 30 31 32 32 33 31 32 34 28 28 27 27 24
3 1 1 3 2 3 4 2 3 5 5 4 6 6 7 8 5 5 8 13 15 13 16 17 15 16 18 21 27 28 32 29 30 31 32 32 32 33 32 32 31 31 31 30 28 27 27 29 29
2 2 2 4 5 5 2 5 5 9 6 2 5 8 9 6 6 5 6 13 16 17 19 17 19 22 21 25 27 32 31 30 31 32 32 33 32 31 31 31 30 29 29 28 26 27 28 29 28
4 1 5 5 4 3 5 5 8 8 8 2 3 0 8 4 5 5 6 13 19 21 21 19 21 20 21 25 32 31 30 31 31 32 31 31 31 32 33 31 31 31 29 29 27 25 23 24 24
Wind_Direction
300 292 306 297 32 75 276 270 282 33 33 51 68 89 109 92 79 155 113 116 257 213 187 164 152 141 142 139 147 148 145 141 148 152 150 145 143 145 146 146 149 149 154 159 160 159 158 160 160
297 304 253 267 101 335 285 247 36 57 91 105 91 101 92 93 48 314 137 184 214 205 182 170 157 149 149 148 156 162 155 151 157 161 161 158 154 156 157 156 159 160 166 171 171 175 182 184 184
289 279 60 169 201 209 255 3 15 31 37 91 109 118 124 133 149 229 155 160 166 168 176 164 157 155 156 156 157 169 166 164 168 174 176 174 175 173 175 177 179 183 187 188 193 200 201 202 205
282 320 322 95 258 264 193 26 5 3 35 69 122 66 96 166 173 206 155 149 134 147 156 159 160 154 158 157 155 169 177 178 180 184 189 190 191 194 194 197 202 206 209 210 217 220 219 222 221
266 289 255 247 261 286 101 73 352 347 24 96 89 98 104 145 150 163 148 140 146 151 161 160 164 165 161 151 149 163 183 187 193 200 200 200 205 210 213 215 218 222 225 227 229 232 233 234 236
312 119 346 266 281 226 77 56 360 7 50 82 92 105 111 94 101 124 139 157 150 137 154 163 168 172 165 161 156 157 172 188 202 216 223 224 225 231 235 236 236 238 239 240 242 242 242 242 241
197 112 258 289 289 295 92 72 55 73 53 11 92 79 344 37 47 132 146 152 141 138 148 170 169 165 170 171 170 173 178 189 205 219 236 239 239 247 253 253 253 250 249 251 252 251 250 250 250
184 110 300 275 313 305 86 51 74 68 52 53 64 43 22 338 9 358 166 145 144 122 109 135 167 185 180 199 207 207 200 198 205 218 229 241 249 253 253 253 254 254 253 253 254 255 255 255 255
178 29 283 287 348 88 74 75 53 71 63 78 103 106 78 7 22 39 59 72 81 60 61 113 55 357 284 266 225 219 221 231 239 248 253 245 252 262 264 261 257 254 252 249 252 253 254 256 257
126 156 245 223 26 6 37 67 79 57 49 31 62 52 46 44 45 39 43 47 69 61 55 49 43 41 45 64 279 239 221 237 251 256 254 252 259 266 268 266 267 265 258 253 251 253 253 251 253
218 217 265 346 52 20 8 34 72 83 51 63 62 54 44 47 45 41 43 41 32 35 30 37 36 21 36 43 48 211 203 257 237 253 240 257 260 260 256 258 260 261 259 253 251 249 248 249 250
190 278 213 49 48 17 354 3 63 93 106 86 71 75 58 45 47 46 38 34 30 26 19 14 25 18 11 11 21 27 357 293 252 255 233 240 239 235 245 262 258 254 254 250 249 251 254 254 253
185 264 176 76 55 332 25 350 92 76 83 78 77 79 68 60 48 42 40 33 21 18 6 9 17 6 359 358 353 359 0 346 290 272 263 234 251 254 244 247 270 249 248 245 248 252 251 251 248
17 355 86 295 187 113 83 295 111 120 106 93 85 85 92 85 67 47 45 38 26 16 10 0 4 355 355 347 342 340 337 334 330 296 270 255 251 254 244 247 256 254 248 246 248 256 247 251 252
335 299 304 243 228 143 82 316 122 140 128 126 128 121 106 104 88 77 63 56 35 14 4 4 358 353 348 341 340 338 337 330 318 310 298 283 255 238 260 234 242 242 245 250 252 253 255 255 244
240 251 233 235 191 165 118 286 140 142 137 164 139 136 123 113 114 109 90 65 35 21 4 352 346 345 340 342 341 340 339 336 328 321 312 297 281 259 254 245 242 243 239 244 253 261 259 254 268
265 234 220 129 169 154 138 140 164 170 155 154 139 136 131 131 132 134 121 115 216 352 339 342 343 343 337 341 344 337 336 336 333 331 333 329 327 303 268 256 248 247 248 250 259 255 246 247 255
327 339 83 147 178 95 317 306 188 183 159 182 149 124 129 120 145 142 159 224 203 253 326 327 330 336 334 340 342 339 330 334 337 334 328 323 317 311 312 314 277 254 255 252 252 245 243 247 252
316 305 317 94 153 126 143 246 268 192 182 149 159 137 120 109 132 135 198 232 195 268 310 309 323 337 337 337 341 338 338 340 334 328 327 333 331 329 324 317 297 276 256 255 259 257 251 255 246
318 301 298 304 33 92 146 249 245 231 179 162 117 95 97 106 141 233 274 142 141 290 302 309 352 352 338 337 342 331 324 322 322 326 318 313 320 325 332 333 320 307 297 265 257 254 254 250 250
284 299 293 52 357 349 323 304 268 258 116 96 99 120 134 184 202 107 42 125 184 267 350 30 9 350 352 350 341 329 325 322 317 318 317 323 321 319 317 316 319 313 308 297 272 259 255 252 256
334 21 11 7 18 283 45 278 311 94 54 74 84 99 294 136 107 238 85 20 317 68 347 190 77 358 350 346 344 339 335 322 314 310 310 311 311 314 313 309 304 303 308 299 290 276 263 260 257
259 27 344 300 287 332 295 2 241 99 63 127 153 229 288 281 26 55 29 326 70 344 322 187 137 338 10 3 346 331 325 317 313 313 310 308 308 307 311 313 311 313 306 297 293 280 275 266 258
299 305 296 267 194 309 250 209 269 140 163 184 213 239 259 17 49 22 23 38 0 348 354 340 7 35 13 349 338 332 321 313 312 311 308 305 305 306 305 307 304 303 310 316 320 301 276 268 266
202 22 329 347 41 220 331 328 219 137 146 165 195 188 22 12 26 2 43 4 343 335 8 20 45 17 360 355 350 345 339 333 329 320 314 307 303 301 300 300 300 300 301 303 305 304 301 282 266
292 136 144 200 35 288 332 30 6 64 59 64 56 29 5 340 325 10 18 337 332 23 25 61 26 10 7 350 339 328 328 327 319 308 302 300 299 297 294 292 290 291 294 298 292 297 296 293 279
330 56 164 108 20 29 233 99 51 66 36 26 345 322 303 296 324 58 342 343 22 23 52 30 29 8 356 349 340 336 334 326 314 308 303 300 296 294 293 288 284 283 287 288 291 289 290 290 290
214 283 48 25 129 227 314 76 201 142 154 246 319 335 325 322 351 339 12 39 18 40 32 12 7 6 357 347 339 334 325 316 310 305 298 296 295 291 287 284 282 281 276 275 276 280 283 279 282
177 256 202 132 136 171 193 268 184 193 171 162 272 310 294 314 344 33 30 19 35 30 19 21 12 354 347 338 336 328 318 311 308 303 297 297 293 287 284 281 279 275 272 266 265 272 274 275 274
129 270 127 123 266 191 157 261 278 155 180 101 82 223 277 330 42 42 20 25 28 32 18 0 348 349 342 338 331 324 315 311 310 304 301 299 294 290 286 279 273 271 269 267 266 267 267 277 279
Height
771 770 770 770 798 795 800 773 737 741 736 741 736 742 767 773 790 807 787 780 771 776 776 773 773 773 775 773 775 777 777 780 781 783 785 788 790 793 794 796 798 799 802 804 805 806 807 808 809
770 770 770 773 804 818 805 753 754 739 735 738 742 754 765 791 772 771 783 778 770 777 776 775 774 775 776 775 777 778 779 780 783 784 786 789 792 795 796 798 799 800 802 803 805 806 807 808 809
770 771 778 789 801 811 795 753 743 728 716 723 744 745 759 782 768 768 765 772 770 774 776 774 774 775 778 777 778 780 780 781 784 785 788 790 793 795 797 799 801 802 803 804 805 806 807 807 808
771 770 773 795 799 773 761 745 737 735 721 721 728 751 749 751 754 753 759 762 765 768 774 775 776 776 779 779 779 781 781 782 784 787 789 792 794 797 798 800 801 801 803 804 805 806 806 807 808
772 773 797 796 786 763 744 733 729 738 730 736 732 759 756 751 754 759 768 771 763 766 771 773 775 777 778 778 779 781 783 784 786 788 790 792 794 796 798 800 801 801 802 803 804 806 806 806 807
782 776 805 810 785 751 742 732 733 738 739 742 744 753 756 755 764 760 768 764 762 760 766 769 772 775 774 776 778 781 785 786 788 790 792 794 796 798 799 800 801 802 803 803 804 804 805 805 805
783 794 803 793 779 763 747 729 742 747 749 748 742 763 758 754 759 761 757 758 761 759 762 767 773 776 777 776 778 780 782 785 787 789 792 794 796 797 799 801 802 802 803 804 804 804 804 803 803
771 784 795 785 783 775 741 735 736 743 751 737 741 772 770 755 758 759 758 757 758 766 773 775 777 780 777 778 781 782 782 783 783 785 789 792 794 796 797 798 799 800 801 801 802 803 803 802 802
759 799 809 790 776 765 741 747 736 734 745 749 749 756 757 755 757 759 767 768 776 777 779 776 784 782 783 783 783 784 785 787 788 789 791 790 791 794 796 796 795 796 797 797 799 799 799 799 799
775 803 791 763 761 767 752 751 748 751 761 766 763 760 759 761 760 763 767 773 781 785 786 785 786 786 786 781 785 785 785 786 785 784 786 786 787 788 790 791 793 793 794 794 794 795 794 794 794
767 789 767 759 756 756 756 751 743 760 777 773 775 771 769 769 771 771 774 778 779 781 781 785 785 784 785 786 785 787 786 785 783 783 783 784 785 783 784 787 788 789 791 792 791 789 789 788 787
769 759 755 755 754 758 762 751 760 761 771 765 768 771 774 778 780 781 781 781 782 781 782 780 780 780 780 783 785 787 786 785 783 782 780 777 778 777 779 782 783 781 784 785 785 784 784 783 782
762 759 751 752 753 755 756 764 768 770 763 764 769 775 779 783 786 786 787 787 785 783 781 781 782 780 779 779 782 784 785 784 783 780 778 775 774 773 774 772 779 774 776 779 780 781 778 778 778
758 758 755 752 756 756 763 764 761 768 763 767 771 778 782 785 789 791 792 794 794 793 791 790 788 787 785 784 783 781 781 781 780 778 776 775 773 772 770 770 770 773 772 774 773 774 774 774 775
754 769 764 758 757 764 757 775 774 764 764 771 774 777 782 786 789 793 795 797 797 797 796 794 793 791 788 785 782 780 778 777 776 777 775 773 772 770 768 768 767 765 766 770 770 770 772 770 769
768 770 793 766 758 762 764 798 773 763 767 773 774 776 782 786 789 791 792 794 795 795 794 793 791 789 788 787 784 780 778 775 773 772 772 771 770 769 767 764 762 763 763 764 765 766 765 762 765
777 796 787 773 755 764 769 785 771 762 767 771 774 777 781 786 788 789 790 790 790 790 790 789 788 787 786 785 783 780 778 775 772 769 768 765 766 766 765 763 760 756 756 758 758 759 759 758 758
795 787 774 779 768 762 773 779 772 766 768 771 772 778 781 782 785 785 787 786 787 787 787 786 785 784 783 782 780 779 777 774 772 769 766 764 762 759 756 755 753 751 753 751 750 753 756 755 754
773 777 781 767 760 770 774 776 772 767 768 773 775 777 781 783 783 783 783 783 785 785 784 783 782 782 781 780 778 776 775 773 772 769 766 762 759 757 754 750 749 748 749 748 748 746 748 748 748
774 780 782 764 759 767 770 779 768 763 769 770 775 780 781 780 780 781 781 781 783 782 781 780 781 780 779 778 776 775 774 772 770 767 765 762 758 755 753 750 746 744 744 743 742 742 743 742 741
776 781 777 782 771 769 776 790 776 760 764 768 771 772 772 776 779 780 779 780 780 779 778 777 777 777 776 775 773 772 770 768 766 763 761 759 757 753 751 747 744 741 740 738 737 737 737 737 736
793 771 775 779 793 817 780 828 785 779 796 785 782 778 779 776 776 777 778 778 777 777 776 774 774 774 773 772 770 769 767 764 763 760 757 755 754 751 748 744 741 738 737 735 733 731 732 733 732
785 772 780 782 796 798 798 815 792 785 803 799 791 787 783 776 775 778 777 776 777 776 772 771 771 771 770 770 769 767 764 761 758 755 752 750 747 745 743 740 737 735 732 729 728 726 725 725 726
766 778 783 785 799 832 801 801 808 795 796 797 792 788 783 777 776 776 776 775 774 772 770 769 770 769 768 767 766 763 760 757 753 750 747 743 741 739 737 735 733 729 727 724 722 721 719 717 718
774 794 835 834 832 833 786 794 802 786 784 785 789 786 779 775 775 776 775 773 771 769 768 769 768 768 766 765 763 761 759 756 752 748 744 739 735 732 730 729 726 724 722 719 717 715 713 712 711
782 793 843 855 860 832 791 815 810 786 779 779 781 781 778 778 775 774 773 771 769 768 767 768 767 766 764 762 760 757 755 753 749 745 739 735 731 727 724 722 720 718 715 714 712 709 707 707 705
780 802 792 818 811 833 813 800 793 786 788 785 783 780 781 777 775 772 769 768 770 769 769 768 766 764 762 759 755 753 748 747 743 738 734 729 725 721 718 715 712 710 708 707 706 703 702 701 700
773 772 811 826 850 838 818 811 813 799 792 787 788 785 781 776 774 770 770 770 769 769 769 767 765 762 760 756 753 748 744 741 737 732 727 722 718 715 711 707 704 701 700 699 698 697 696 695 693
787 793 789 807 824 854 861 830 786 792 788 786 784 784 780 777 773 772 770 769 767 767 766 765 763 760 757 753 749 743 738 735 730 725 720 715 710 705 702 698 695 692 691 691 690 690 689 687 687
765 776 788 830 818 827 836 832 775 781 783 779 783 778 777 773 772 770 768 767 766 767 766 765 761 758 754 750 744 738 733 729 723 718 713 707 701 696 692 689 686 683 682 682 683 682 683 682 682